• In Belarus
  • List of Countries
  • For 7 days
  • Water Temperature
  • Satellite Maps
  • Weather Map
  • Weather Widgets
  • user-avatar
    Login

    Hourly Weather Brisbane

    Today, 23 July, Sunday

    Time Temperature Precipitation Wind Pressure Humidity
    00:00 +13°C° 0 mm 1 mps 764 mmHg 84%
    01:00 +12°C° 0 mm 1 mps 764 mmHg 86%
    02:00 +12°C° 0 mm 1 mps 764 mmHg 86%
    03:00 +12°C° 0 mm 2 mps 765 mmHg 86%
    04:00 +12°C° 0 mm 2 mps 764 mmHg 86%
    05:00 +10°C° 0 mm 2 mps 764 mmHg 85%
    06:00 +10°C° 0 mm 2 mps 764 mmHg 83%
    07:00 +10°C° 0 mm 2 mps 765 mmHg 82%
    08:00 +14°C° 0 mm 2 mps 765 mmHg 71%
    09:00 +17°C° 0 mm 2 mps 764 mmHg 60%
    10:00 +20°C° 0 mm 3 mps 764 mmHg 49%
    11:00 +21°C° 0 mm 3 mps 764 mmHg 43%
    12:00 +24°C° 0 mm 3 mps 763 mmHg 36%
    13:00 +25°C° 0 mm 2 mps 762 mmHg 30%
    14:00 +25°C° 0 mm 2 mps 762 mmHg 32%
    15:00 +25°C° 0 mm 3 mps 762 mmHg 34%
    16:00 +24°C° 0 mm 3 mps 762 mmHg 35%
    17:00 +21°C° 0 mm 2 mps 762 mmHg 41%
    18:00 +19°C° 0 mm 2 mps 762 mmHg 47%
    19:00 +17°C° 0 mm 2 mps 763 mmHg 53%
    20:00 +16°C° 0 mm 2 mps 763 mmHg 52%
    21:00 +15°C° 0 mm 2 mps 763 mmHg 51%
    22:00 +14°C° 0 mm 2 mps 764 mmHg 50%
    23:00 +14°C° 0 mm 2 mps 764 mmHg 50%

    Tomorrow, 24 July, Monday

    Time Temperature Precipitation Wind Pressure Humidity
    00:00 +13°C° 0 mm 2 mps 764 mmHg 49%
    01:00 +13°C° 0 mm 2 mps 764 mmHg 49%
    02:00 +12°C° 0 mm 2 mps 763 mmHg 49%
    03:00 +12°C° 0 mm 2 mps 763 mmHg 49%
    04:00 +10°C° 0 mm 2 mps 763 mmHg 49%
    05:00 +10°C° 0 mm 2 mps 763 mmHg 48%
    06:00 +10°C° 0 mm 2 mps 764 mmHg 47%
    07:00 +10°C° 0 mm 2 mps 764 mmHg 46%
    08:00 +14°C° 0 mm 2 mps 764 mmHg 40%
    09:00 +18°C° 0 mm 2 mps 765 mmHg 35%
    10:00 +21°C° 0 mm 2 mps 765 mmHg 29%
    11:00 +23°C° 0 mm 2 mps 764 mmHg 27%
    12:00 +25°C° 0 mm 1 mps 764 mmHg 24%
    13:00 +27°C° 0 mm 1 mps 763 mmHg 22%
    14:00 +26°C° 0 mm 2 mps 763 mmHg 25%
    15:00 +25°C° 0 mm 2 mps 763 mmHg 28%
    16:00 +25°C° 0 mm 2 mps 763 mmHg 31%
    17:00 +21°C° 0 mm 2 mps 763 mmHg 38%
    18:00 +20°C° 0 mm 1 mps 764 mmHg 45%
    19:00 +18°C° 0 mm 1 mps 764 mmHg 52%
    20:00 +16°C° 0 mm 1 mps 765 mmHg 54%
    21:00 +15°C° 0 mm 1 mps 765 mmHg 56%
    22:00 +14°C° 0 mm 1 mps 766 mmHg 58%
    23:00 +14°C° 0 mm 1 mps 765 mmHg 58%

    Day after tomorrow, 25 July, Tuesday

    Time Temperature Precipitation Wind Pressure Humidity
    00:00 +13°C° 0 mm 2 mps 765 mmHg 58%
    01:00 +13°C° 0 mm 2 mps 765 mmHg 58%
    02:00 +12°C° 0 mm 2 mps 765 mmHg 57%
    03:00 +12°C° 0 mm 2 mps 765 mmHg 57%
    04:00 +12°C° 0 mm 2 mps 765 mmHg 56%
    05:00 +10°C° 0 mm 2 mps 765 mmHg 56%
    06:00 +10°C° 0 mm 2 mps 766 mmHg 56%
    07:00 +10°C° 0 mm 2 mps 766 mmHg 56%
    08:00 +14°C° 0 mm 2 mps 766 mmHg 49%
    09:00 +19°C° 0 mm 1 mps 766 mmHg 42%
    10:00 +22°C° 0 mm 1 mps 767 mmHg 35%
    11:00 +23°C° 0 mm 1 mps 766 mmHg 31%
    12:00 +25°C° 0 mm 1 mps 765 mmHg 28%
    13:00 +26°C° 0 mm 1 mps 765 mmHg 25%
    14:00 +25°C° 0 mm 1 mps 764 mmHg 28%
    15:00 +25°C° 0 mm 1 mps 764 mmHg 31%
    16:00 +24°C° 0 mm 2 mps 764 mmHg 33%
    17:00 +21°C° 0 mm 2 mps 764 mmHg 44%
    18:00 +18°C° 0 mm 2 mps 765 mmHg 54%
    19:00 +16°C° 0 mm 2 mps 765 mmHg 64%
    20:00 +15°C° 0 mm 2 mps 766 mmHg 67%
    21:00 +15°C° 0 mm 2 mps 766 mmHg 70%
    22:00 +14°C° 0 mm 2 mps 766 mmHg 73%
    23:00 +14°C° 0 mm 2 mps 766 mmHg 71%

    26 July, Wednesday

    Time Temperature Precipitation Wind Pressure Humidity
    00:00 +13°C° 0 mm 2 mps 765 mmHg 69%
    01:00 +13°C° 0 mm 2 mps 765 mmHg 67%
    02:00 +12°C° 0 mm 2 mps 765 mmHg 64%
    03:00 +12°C° 0 mm 2 mps 765 mmHg 61%
    04:00 +10°C° 0 mm 2 mps 765 mmHg 58%
    05:00 +10°C° 0 mm 2 mps 765 mmHg 58%
    06:00 +10°C° 0 mm 2 mps 766 mmHg 58%
    07:00 +10°C° 0 mm 2 mps 766 mmHg 57%
    08:00 +14°C° 0 mm 2 mps 766 mmHg 50%
    09:00 +17°C° 0 mm 2 mps 766 mmHg 42%
    10:00 +20°C° 0 mm 2 mps 766 mmHg 35%
    11:00 +23°C° 0 mm 2 mps 765 mmHg 30%
    12:00 +25°C° 0 mm 2 mps 764 mmHg 26%
    13:00 +26°C° 0 mm 2 mps 764 mmHg 22%
    14:00 +26°C° 0 mm 2 mps 763 mmHg 25%
    15:00 +26°C° 0 mm 2 mps 763 mmHg 28%
    16:00 +26°C° 0 mm 2 mps 762 mmHg 31%
    17:00 +24°C° 0 mm 2 mps 763 mmHg 37%
    18:00 +20°C° 0 mm 3 mps 763 mmHg 42%
    19:00 +18°C° 0 mm 3 mps 764 mmHg 48%
    20:00 +17°C° 0 mm 2 mps 764 mmHg 49%
    21:00 +17°C° 0 mm 2 mps 764 mmHg 50%
    22:00 +16°C° 0 mm 2 mps 764 mmHg 50%
    23:00 +16°C° 0 mm 2 mps 764 mmHg 51%

    27 July, Thursday

    Time Temperature Precipitation Wind Pressure Humidity
    00:00 +15°C° 0 mm 2 mps 764 mmHg 52%
    01:00 +15°C° 0 mm 2 mps 764 mmHg 53%
    02:00 +14°C° 0 mm 3 mps 764 mmHg 53%
    03:00 +13°C° 0 mm 3 mps 764 mmHg 54%
    04:00 +13°C° 0 mm 3 mps 764 mmHg 54%
    05:00 +13°C° 0 mm 3 mps 765 mmHg 55%
    06:00 +12°C° 0 mm 3 mps 765 mmHg 57%
    07:00 +12°C° 0 mm 3 mps 766 mmHg 58%
    08:00 +16°C° 0 mm 3 mps 766 mmHg 51%
    09:00 +18°C° 0 mm 2 mps 766 mmHg 44%
    10:00 +21°C° 0 mm 2 mps 766 mmHg 36%
    11:00 +23°C° 0 mm 2 mps 765 mmHg 32%
    12:00 +25°C° 0 mm 2 mps 765 mmHg 27%
    13:00 +26°C° 0 mm 2 mps 764 mmHg 23%
    14:00 +25°C° 0 mm 2 mps 764 mmHg 26%
    15:00 +25°C° 0 mm 3 mps 764 mmHg 30%
    16:00 +24°C° 0 mm 3 mps 764 mmHg 33%
    17:00 +20°C° 0 mm 3 mps 765 mmHg 43%
    18:00 +18°C° 0 mm 3 mps 765 mmHg 53%
    19:00 +16°C° 0 mm 3 mps 766 mmHg 62%
    20:00 +14°C° 0 mm 3 mps 766 mmHg 66%
    21:00 +14°C° 0 mm 3 mps 766 mmHg 69%
    22:00 +14°C° 0 mm 2 mps 767 mmHg 72%
    23:00 +14°C° 0 mm 2 mps 767 mmHg 73%

    28 July, Friday

    Time Temperature Precipitation Wind Pressure Humidity
    00:00 +13°C° 0 mm 2 mps 767 mmHg 75%
    01:00 +13°C° 0 mm 2 mps 767 mmHg 76%
    02:00 +12°C° 0 mm 2 mps 767 mmHg 77%
    03:00 +12°C° 0 mm 2 mps 766 mmHg 77%
    04:00 +10°C° 0 mm 2 mps 766 mmHg 78%
    05:00 +10°C° 0 mm 2 mps 767 mmHg 78%
    06:00 +10°C° 0 mm 2 mps 767 mmHg 78%
    07:00 +10°C° 0 mm 2 mps 767 mmHg 78%
    08:00 +14°C° 0 mm 2 mps 767 mmHg 69%
    09:00 +18°C° 0 mm 1 mps 767 mmHg 60%
    10:00 +21°C° 0 mm 1 mps 767 mmHg 51%
    11:00 +22°C° 0 mm 1 mps 766 mmHg 46%
    12:00 +23°C° 0 mm 1 mps 765 mmHg 41%
    13:00 +24°C° 0 mm 1 mps 764 mmHg 36%
    14:00 +24°C° 0 mm 1 mps 764 mmHg 37%
    15:00 +24°C° 0 mm 2 mps 764 mmHg 38%
    16:00 +23°C° 0 mm 2 mps 764 mmHg 40%
    17:00 +20°C° 0 mm 2 mps 764 mmHg 49%
    18:00 +18°C° 0 mm 2 mps 765 mmHg 59%
    19:00 +16°C° 0 mm 2 mps 765 mmHg 68%
    20:00 +16°C° 0 mm 2 mps 765 mmHg 72%
    21:00 +15°C° 0 mm 2 mps 766 mmHg 75%
    22:00 +15°C° 0 mm 2 mps 766 mmHg 79%
    23:00 +14°C° 0 mm 2 mps 766 mmHg 77%
    Show more